FENGYUN 2H

Last updated on Mon Jun 22 2026 00:02:46 GMT+0000 (Coordinated Universal Time)

1 43491U 18050A 26172.54842275 -.00000131 00000+0 00000+0 0 9994 2 43491 3.0437 79.0286 0001805 136.1614 331.3565 1.00269411 29481
UTC large
Height (km)
Speed (km/s)
/
Latitude / Longitude
Inclination (degrees)
Orbital Period (minutes)
Azimuth
Elevation
Range (km)
Doppler Factor

Next 0 passes for location: London (51.5072 / 0.1276)

No passes found over London.
FENGYUN 2H